Regional Weather Roundup
Issued by NWS

Home | Current Version | Previous Version | Text Only | Print | Product List | Glossary On
Versions: 1 2 3 4 5 6 7 8 9 10 11 12 13 14 15 16 17 18 19 20 21 22 23 24 25 26 27 28 29 30 31 32 33 34 35 36 37 38 39 40 41 42 43 44 45 46 47 48 49 50
000
ASUS43 KMPX 240501
RWRMN
WEATHER ROUNDUP FOR MINNESOTA
NATIONAL WEATHER SERVICE TWIN CITIES/CHANHASSEN MN
1200 AM CDT FRI MAR 24 2017


NOTE: "FAIR" INDICATES FEW OR NO CLOUDS BELOW 12,000 FEET WITH NO
SIGNIFICANT WEATHER AND/OR OBSTRUCTIONS TO VISIBILITY. N/A MEANS
CURRENT SKY AND/OR WEATHER CONDITIONS ARE NOT AVAILABLE.

MNZ060>063-068>070-240600-
   Twin Cities Metro

CITY           SKY/WX    TMP DP  RH WIND       PRES   REMARKS
TWIN CITIES    LGT RAIN  38  36  92 E7        29.86S FOG
ST PAUL        LGT RAIN  39  38  96 E3        29.88S FOG
CRYSTAL        LGT RAIN  38  35  89 E5        29.86R FOG
BLAINE         DRIZZLE   39  39 100 E5        29.86S
LAKEVILLE      DRIZZLE   36  36 100 NE6       29.84S
EDEN PRAIRIE   CLOUDY    39  37  92 NE8       29.85R FOG
SOUTH ST PAUL  CLOUDY    38  38  97 E3        29.86S FOG
LAKE ELMO      DRIZZLE   37  36  93 E3        29.88R
$$
MNZ001>005-007-008-013>017-022>024-027-028-240600-
   Northwest Minnesota

CITY           SKY/WX    TMP DP  RH WIND       PRES   REMARKS
BEMIDJI        CLOUDY    32  32 100 CALM      29.88R FOG
HALLOCK        CLOUDY    34  32  93 N5        29.91R FOG     WCI  30
ROSEAU         CLOUDY    36  30  80 CALM      29.89S
WARROAD        CLOUDY    36  30  80 CALM      29.90R
THIEF RVR FALL LGT RAIN N/A N/A N/A NW5       29.89F
CROOKSTON      CLOUDY    34  34 100 N3        29.89F FOG
FOSSTON        CLOUDY    30  30 100 N3        29.87F FOG
DETROIT LAKES  CLOUDY    34  32  93 NE3       29.88R FOG
MOORHEAD       CLOUDY    34  34 100 E5        29.89R FOG     WCI  30
PARK RAPIDS    CLOUDY    34  31  88 CALM      29.87R
MAHNOMEN       CLOUDY    32  32  99 CALM      29.89R FOG
$$
MNZ006-009>011-018-025>026-240600-
   North Central Minnesota

CITY           SKY/WX    TMP DP  RH WIND       PRES   REMARKS
BAUDETTE       CLOUDY    34  32  92 CALM      29.88F
FLAG ISLAND    CLOUDY    36  30  80 CALM      29.89R
INTL FALLS     CLOUDY    33  32  96 CALM      29.89S
WASKISH        CLOUDY    34  34 100 CALM      29.89S
BIG FORK       CLOUDY    34  32  93 CALM      29.90R FOG
LONGVILLE      CLOUDY    32  32 100 CALM      29.88S FOG
GRAND RAPIDS   CLOUDY   N/A N/A N/A CALM      29.90R FOG
CRANE LAKE     CLOUDY    30  30 100 CALM      29.91S FOG
ORR            CLOUDY    32  30  93 CALM      29.87R FOG
COOK           CLOUDY    32  32 100 CALM      29.89R FOG
WALKER         CLOUDY    32  32  99 CALM      29.88R FOG
$$
MNZ012-019>021-037-240600-
   Northeast Minnesota

CITY           SKY/WX    TMP DP  RH WIND       PRES   REMARKS
DULUTH         FRZ DRZL  32  31  96 SE3       29.87R FOG
ELY            LGT SNOW  32  32 100 CALM      29.88S
HIBBING        CLOUDY    31  31 100 CALM      29.87S FOG
EVELETH        CLOUDY    32  31  96 CALM      29.88S FOG
DULUTH HARBOR  MIX PCPN  34  32  93 CALM      29.91S
TWO HARBORS    LGT RAIN  36  30  80 CALM      29.86F
SILVER BAY     CLOUDY    34  32  93 CALM      29.87S FOG
GRAND MARAIS     N/A     33  32  96 CALM      29.92S
G MARAIS ARPRT LGT SNOW  28  25  86 CALM      29.87S
$$
MNZ029>031-032-039>041-046>048-054>057-064-240600-
   West Central Minnesota

CITY           SKY/WX    TMP DP  RH WIND       PRES   REMARKS
FERGUS FALLS   CLOUDY    34  34 100 E3        29.92R
WHEATON        CLOUDY    34  34 100 CALM      29.89R FOG
MORRIS         CLOUDY    36  34  93 E6        29.84S FOG
ALEXANDRIA     CLOUDY    34  34 100 SE5       29.86R FOG     WCI  30
ELBOW LAKE     CLOUDY    33  33 100 CALM      29.87R FOG
WADENA         CLOUDY    32  32 100 CALM      29.87R FOG
GLENWOOD       CLOUDY    34  34 100 E5        29.85R FOG     WCI  30
APPLETON       CLOUDY    36  34  93 CALM      29.83S FOG
BENSON         CLOUDY    37  34  87 E7        29.85F FOG
ORTONVILLE     CLOUDY    36  34  93 NE3       29.84S FOG
MADISON        CLOUDY    37  37 100 NE6       29.83S FOG
WILLMAR        DRIZZLE   36  36 100 NE6       29.85R
$$
MNZ033>034-036-042>043-049>051-058-059-240600-
   Central Minnesota

CITY           SKY/WX    TMP DP  RH WIND       PRES   REMARKS
ST CLOUD       CLOUDY    35  35 100 E3        29.86R FOG
SAUK CENTRE    RAIN      33  33  99 SE5       29.85S WCI  29
PAYNESVILLE      N/A     34  34 100 NE5       29.86R FOG     WCI  30
AITKIN         MIX PCPN  36  30  80 CALM      29.87R
PINE RIVER     CLOUDY    32  32 100 CALM      29.92R FOG
BRAINERD       MIX PCPN  33  33 100 N3        29.87R FOG
STAPLES        CLOUDY    32  32 100 CALM      29.87R FOG
LONG PRAIRIE   MIX PCPN  32  32 100 CALM      29.85S
LITTLE FALLS   CLOUDY    34  32  93 CALM      29.86S FOG
LITCHFIELD     DRIZZLE   37  36  93 E5        29.85R
BUFFALO        DRIZZLE   37  35  94 NE5       29.87R
MAPLE LAKE     CLOUDY    37  37  99 NE6       29.86R FOG
HUTCHINSON     DRIZZLE   37  37 100 E6        29.84R
$$
MNZ037-044-045-052-053-240600-
   East Central Minnesota

CITY           SKY/WX    TMP DP  RH WIND       PRES   REMARKS
PRINCETON      DRIZZLE   37  36  93 NE3       29.87S
MORA           DRIZZLE   32  32 100 CALM      29.89S
CAMBRIDGE      DRIZZLE   37  32  81 CALM      29.86S
RUSH CITY      CLOUDY    34  33  96 CALM      29.88R FOG
MOOSE LAKE     CLOUDY    32  32 100 CALM      29.87R FOG
HINCKLEY       CLOUDY    34  34 100 CALM      29.89R FOG
CLOQUET        MIX PCPN  32  30  93 SE3       29.88R
MCGREGOR       CLOUDY    32  32 100 CALM      29.89R
$$
MNZ071>073-080-081-089-090-097-098-240600-
   Southwest Minnesota

CITY           SKY/WX    TMP DP  RH WIND       PRES   REMARKS
MONTEVIDEO     LGT SNOW  36  36 100 E8        29.85S
GRANITE FALLS  CLOUDY    37  37  97 N7        29.83F FOG
CANBY          FOG       36  36  99 CALM      29.82F VSB 3/4
MARSHALL       CLOUDY    37  36  96 NE5       29.83R FOG
REDWOOD FALLS  CLOUDY    39  36  89 E7        29.81R FOG
OLIVIA         CLOUDY    36  36 100 E7        29.81F FOG
PIPESTONE      CLOUDY    39  36  87 SE8       29.77R
WINDOM         CLOUDY    39  36  87 N9        29.79R
WORTHINGTON    CLOUDY    39  36  89 N10       29.78R THUNDER
JACKSON        CLOUDY    37  36  93 NE5       29.78R
TRACY          CLOUDY    38  37  99 SE8       29.81R FOG
SLAYTON        CLOUDY    36  35  96 NE6       29.80R
$$
MNZ065>067-074>077-082>085-091>093-240600-
   South Central Minnesota

CITY           SKY/WX    TMP DP  RH WIND       PRES   REMARKS
MANKATO        CLOUDY    41  37  86 NE5       29.82R
NEW ULM        LGT RAIN  39  36  87 NE6       29.82R
ST JAMES       CLOUDY    39  37  93 CALM      29.80S
FAIRMONT       CLOUDY    41  37  86 SE13      29.75F
GLENCOE        DRIZZLE   38  39 100 NE5       29.83S
FARIBAULT      CLOUDY    41  37  87 E3        29.82F
OWATONNA       CLOUDY    41  36  81 SE7       29.80F
WASECA         CLOUDY    39  36  87 E6        29.81S
ALBERT LEA     CLOUDY    39  37  93 SE14      29.78F
$$
MNZ078>079-086>088-094>096-240600-
   Southeast Minnesota

CITY           SKY/WX    TMP DP  RH WIND       PRES   REMARKS
ROCHESTER      CLOUDY    37  36  96 SE13      29.81F
RED WING       DRIZZLE   41  34  75 E3        29.85R
STANTON        DRIZZLE   39  36  89 NE5       29.83S
DODGE CENTER   CLOUDY    39  37  93 SE15      29.79F
WINONA         CLOUDY    39  34  81 SE7       29.86F
AUSTIN         CLOUDY    39  36  87 SE9       29.80F
PRESTON        CLOUDY    37  35  90 SE12      29.84F
$$
ABBREVIATIONS USED IN REMARKS
   TC - TEMPERATURES IN CELSIUS
  WCI - WIND CHILL INDEX
   HX - HEAT INDEX
  VSB - VISIBILITY
$$




USA.gov is the U.S. government's official web portal to all federal, state and local government web resources and services.